EST,Max TemperatureF,Mean TemperatureF,Min TemperatureF,Max Dew PointF,MeanDew PointF,Min DewpointF,Max Humidity, Mean Humidity, Min Humidity, Max Sea Level PressureIn, Mean Sea Level PressureIn, Min Sea Level PressureIn, Max VisibilityMiles, Mean VisibilityMiles, Min VisibilityMiles, Max Wind SpeedMPH, Mean Wind SpeedMPH, Max Gust SpeedMPH,PrecipitationIn, CloudCover, Events, WindDirDegrees
2012-11-1,52,47,41,41,39,36,89,74,59,29.55,29.53,29.50,10,10,10,12,4,15,T,7,Rain,187
2012-11-2,52,45,38,41,36,32,96,73,50,29.62,29.56,29.52,10,10,10,14,6,17,0.00,7,,287
2012-11-3,52,47,41,34,32,30,70,57,44,29.80,29.71,29.61,10,10,10,21,10,25,0.00,7,,312
2012-11-4,49,43,36,32,29,25,76,63,49,29.96,29.88,29.80,10,10,10,20,11,30,T,6,,311
2012-11-5,42,33,23,23,19,15,64,54,44,30.14,30.03,29.96,10,10,10,17,9,23,T,6,,323
2012-11-6,41,29,17,21,15,10,92,61,30,30.24,30.21,30.14,10,10,10,13,2,16,0.00,0,,325
2012-11-7,37,28,18,24,15,9,84,58,32,30.23,30.07,29.88,10,10,4,21,9,28,T,4,Snow,20
2012-11-8,38,35,31,36,31,27,92,84,76,29.87,29.79,29.72,10,5,1,20,11,28,0.27,8,Rain-Snow,344
2012-11-9,51,43,34,30,26,17,76,53,29,30.08,29.94,29.80,10,10,5,25,10,32,0.00,3,,315
2012-11-10,52,40,27,32,27,22,92,62,32,30.47,30.29,30.08,10,10,10,21,6,28,0.00,1,,311
2012-11-11,60,45,30,42,35,26,100,77,53,30.50,30.45,30.39,10,9,2,12,3,15,0.00,4,,158
2012-11-12,67,49,30,55,41,28,100,71,42,30.45,30.37,30.20,10,7,0,15,5,21,0.00,2,Fog,155
2012-11-13,61,44,26,58,43,25,100,85,70,30.45,30.23,30.08,10,9,2,22,8,33,0.22,7,Rain,281
2012-11-14,47,35,22,29,24,19,100,67,34,30.58,30.52,30.45,10,10,9,10,2,13,0.00,2,,331
2012-11-15,45,32,18,27,23,16,96,71,45,30.52,30.42,30.32,10,10,10,8,1,13,0.00,0,,312
2012-11-16,44,34,23,27,24,21,100,73,45,30.46,30.35,30.31,10,10,7,7,1,9,0.00,0,,320
2012-11-17,48,34,20,29,23,18,100,70,39,30.69,30.59,30.47,10,9,7,7,1,9,0.00,0,,277
2012-11-18,47,33,18,27,21,16,92,67,42,30.76,30.70,30.66,10,9,5,6,1,8,0.00,0,,355
2012-11-19,48,32,16,30,22,14,100,71,42,30.65,30.49,30.30,10,9,7,6,1,7,0.00,0,,297
2012-11-20,49,33,17,26,23,15,92,67,42,30.28,30.21,30.16,10,9,6,5,0,7,0.00,0,,300
2012-11-21,50,37,23,34,28,24,100,75,49,30.30,30.26,30.19,10,8,1,7,1,9,0.00,2,,28
2012-11-22,53,37,20,36,28,19,100,75,50,30.31,30.23,30.13,10,8,4,7,0,8,0.00,0,,155
2012-11-23,58,41,24,40,32,23,100,72,43,30.11,29.93,29.62,10,5,0,13,4,17,0.00,4,Fog,155
2012-11-24,45,37,29,41,24,16,93,64,34,29.63,29.58,29.51,10,10,6,23,11,31,0.01,6,Rain,285
2012-11-25,37,33,28,20,15,4,69,47,24,29.83,29.73,29.63,10,10,10,24,10,35,0.00,3,,270
2012-11-26,43,32,21,25,21,18,92,65,38,30.25,30.02,29.83,10,10,10,18,4,26,0.00,5,,279
2012-11-27,35,26,17,31,25,16,100,85,70,30.32,30.27,30.25,10,7,1,7,1,9,0.00,5,,208
2012-11-28,38,28,17,24,21,16,100,74,48,30.24,30.18,30.12,10,9,6,8,2,10,0.00,6,,294
2012-11-29,42,31,20,27,20,15,84,61,37,30.24,30.16,30.09,10,10,10,21,8,28,T,3,Snow,277
2012-11-30,31,26,21,22,5,-4,69,48,26,30.59,30.46,30.25,10,10,10,17,7,23,0.00,5,,326